Terug naar catalogus

STARLINK-11676

ActiefCommunicatieVLEO
NORAD 63757·PAYLOAD·🇺🇸 United States

Gelanceerd Apr 29, 2025 vanaf Cape Canaveral Space Force Station

Loading…

Volgende Passages (komende 24 uur)

TLE

VersSource: CelesTrak SupGP

Epoch: Sep 15, 2026, 03:10 UTC

1 63757C 25089G   26258.13243056 -.00098577  00000+0 -76555-3 0  2585
2 63757  43.0006 229.9107 0001575 264.9347 136.5543 15.70890207    13

Volg STARLINK-11676 in realtime met AllMySat

Download on the App Store